[ hide orbit diagram ]
For accurate long-term ephemerides, please instead use our Horizons system.This orbit viewer was implemented using two-body methods, and hence should not be used for determining accurate long-term trajectories (over several years or decades) or planetary encounter circumstances.
Orbital Elements at Epoch 2453592.5 (2005-Aug-10.0) TDB
Reference: JPL 3 (heliocentric ecliptic J2000)
Element | Value | Uncertainty (1-sigma) | Units |
e | .9848618681444121 | 8.6035e-05 | |
a | 3.223552998284503 | 3.301e-05 | au |
q | .04879857033150645 | 0.00027775 | au |
i | 13.57497488003668 | 0.28658 | deg |
node | 50.19576775943682 | 0.75948 | deg |
peri | 52.15494545396132 | 1.2178 | deg |
M | 179.507325500189 | 0.0015917 | deg |
tp | 2452538.403613136043 (2002-Sep-20.90361314) | 0.025472 | TDB |
period | 2113.978904279452 5.79 | 0.032472 8.89e-05 | d yr |
n | .1702949822589198 | 2.6158e-06 | deg/d |
Q | 6.398307426237499 | 6.552e-05 | au |
|
| | Orbit Determination Parameters
Additional Information
|
[ show covariance matrix ]
no physical parameters available |
[ show close-approach data ]
Alternate Designations
Perihelion Year (est.) | New-Style Desig | Roman Numeral | Year/ Letter | 2008.5 | P/2008 N4 | | |
2002.7 | P/2002 S7 | | |
|
|